User: anonymous
Location: Gipe Farm
(40.9466°N, 95.5370°W)
Time: 20:48:57
(UTC-05:00)
Language:

Cosmos 2082 Rocket - Orbit

View from above orbital plane
View from above orbital plane
View from above satellite
View from above satellite

Ground track
Ground track

The orbit data is extracted from the following two-line orbital elements,

1 20625U 90046B   14107.98507314  .00000368  00000-0  21622-3 0  6949
2 20625 071.0006 055.6176 0012626 059.1721 005.1226 14.14514922234337
Epoch (UTC): 17 April 2014 23:38:30
Eccentricity: 0.0012626
inclination: 71.0006°
perigee height: 835 km
apogee height: 853 km
right ascension of ascending node: 55.6176°
argument of perigee: 59.1721°
revolutions per day: 14.14514922
mean anomaly at epoch: 5.1226°
orbit number at epoch: 23433

The dashed part of the orbit path shows where the satellite is in the earth's shadow,  

DLR